Regional Weather Roundup
Issued by NWS

Home | Current Version | Previous Version | Graphics & Text | Print | Product List | Glossary On
Versions: 1 2 3 4 5 6 7 8 9 10 11 12 13 14 15 16 17 18 19 20 21 22 23 24 25 26 27 28 29 30 31 32 33 34 35 36 37 38 39 40 41 42 43 44 45 46 47 48 49 50
000
ASUS43 KIND 051509
RWRIN

WEATHER ROUNDUP FOR INDIANA
NATIONAL WEATHER SERVICE INDIANAPOLIS IN
1000 AM EST FRI FEB 05 2016

NOTE: "FAIR" INDICATES FEW OR NO CLOUDS BELOW 12,000 FEET WITH NO
SIGNIFICANT WEATHER AND/OR OBSTRUCTIONS TO VISIBILITY.

* - STATION DOES NOT REPORT WEATHER SUCH AS PRECIPITATION OR FOG.

+ - STATION NOT QUALITY CONTROLLED BY THE NATIONAL WEATHER SERVICE.
    USE DATA WITH CAUTION...ESPECIALLY DEWPOINT AND RELATIVE
    HUMIDITY OBSERVATIONS.

INZ001>003-010>013-019-020-051600-
NORTHWEST INDIANA

CITY           SKY/WX    TMP DP  RH WIND       PRES   REMARKS
GARY /AIRPORT/ CLOUDY    32  25  74 W7        30.35R WCI  26
LA PORTE +     SUNNY     31  27  87 W5        30.33S WCI  26
MICHIGAN CITY+ FLURRIES  30  27  86 SW3       30.34S
MONTICELLO +   MOSUNNY   28  20  70 SW8       30.35S WCI  20
RENSSELAER +   CLOUDY    30  27  86 W10       30.36R WCI  21
VALPARAISO     CLOUDY    29  24  82 W8        30.34R WCI  21

$$

LMZ046-743>745-051600-
SOUTHERN LAKE MICHIGAN

STATION/POSITION TIME  TEMP    WIND        PRES    WAVE
                       AIR SEA DIR/SP/G            HT
                 (UTC) (F)     (DEG/KT/KT) (MB)    (FT)
BURNS HARBOR     1400   29     210/  5/  8 1027.4R
MICHIGAN CITY    1400   27     170/  7/  9   N/A

$$

INZ004-005-014>016-021>024-051600-
NORTH CENTRAL INDIANA

CITY           SKY/WX    TMP DP  RH WIND       PRES   REMARKS
ELKHART          N/A     30  23  74 MISG      30.33F
GOSHEN         SUNNY     29  21  72 S10       30.33S WCI  20
LOGANSPORT +   SUNNY     30  21  69 SW10      30.36S WCI  21
PERU/GRISSOM   SUNNY     29  23  76 SW10      30.33F WCI  20
ROCHESTER +    SUNNY     32  19  59 SW7       30.35R WCI  26
SOUTH BEND     PTSUNNY   28  21  75 SW9       30.33S WCI  19
WARSAW +       MOSUNNY   30  21  69 SW5       30.34S WCI  25

$$

INZ006>009-017-018-025>027-051600-
NORTHEAST INDIANA

CITY           SKY/WX    TMP DP  RH WIND       PRES   REMARKS
ANGOLA *+      MOSUNNY   27  21  80 SW7       30.33R WCI  19
AUBURN +       MOSUNNY   30  19  64 SW6       30.36R WCI  24
FORT WAYNE     MOSUNNY   28  21  75 SW9       30.37R WCI  19
HUNTINGTON +   SUNNY     29  18  63 SW5       30.36S WCI  24

$$

INZ028-029-035-036-043>045-051>053-051600-
WEST CENTRAL INDIANA

CITY           SKY/WX    TMP DP  RH WIND       PRES   REMARKS
GREENCASTLE +  SUNNY     30  16  55 SW5       30.38S WCI  25
LAFAYETTE      SUNNY     28  22  78 W9        30.37R WCI  19
TERRE HAUTE    SUNNY     30  21  69 SW7       30.40R WCI  23

$$

INZ030>032-037>040-046>048-054>057-064-065-051600-
CENTRAL INDIANA

CITY           SKY/WX    TMP DP  RH WIND       PRES   REMARKS
ANDERSON       SUNNY     30  21  69 S12       30.39R WCI  21
COLUMBUS       SUNNY     28  25  86 S8        30.42S WCI  20
FISHERS *+     SUNNY     30  23  74 SW9       30.38  WCI  22
FRANKFORT +    SUNNY     30  18  60 SW9       30.37S WCI  22
GREENWOOD *+   SUNNY     32  23  69 S7        30.39S WCI  26
INDIANAPOLIS   MOSUNNY   30  20  66 S9        30.37S WCI  22
-EAGLE CREEK   SUNNY     28  20  71 S7        30.37S WCI  21
KOKOMO *+      SUNNY     30  19  64 SW10      30.36S WCI  21
MARION +       SUNNY     29  16  59 SW9       30.37S WCI  20
MT COMFORT *+  SUNNY     28  21  74 S9        30.39R WCI  20
SHELBYVILLE    SUNNY     31  21  66 S9        30.39S WCI  23
ZIONSVILLE +   SUNNY     29  21  74 S8        30.37S WCI  21

$$

INZ033-034-041-042-049-050-058-059-051600-
EAST CENTRAL INDIANA

CITY           SKY/WX    TMP DP  RH WIND       PRES   REMARKS
MUNCIE         SUNNY     32  19  58 S8        30.37S WCI  25

$$

INZ060-061-067>069-081>083-085>088-051600-
SOUTHWEST INDIANA

CITY           SKY/WX    TMP DP  RH WIND       PRES   REMARKS
EVANSVILLE     SUNNY     36  24  62 S8        30.44R
HUNTINGBURG *+ SUNNY     30  21  69 S10       30.44S WCI  21
WASHINGTON +   SUNNY     32  22  67 S9        30.42S WCI  24

$$

INZ062-063-066-070>080-084-089>092-051600-
SOUTH CENTRAL AND SOUTHEAST INDIANA

CITY           SKY/WX    TMP DP  RH WIND       PRES   REMARKS
BEDFORD +      SUNNY     30  23  74 S7        30.42R WCI  23
BLOOMINGTON    SUNNY     31  20  63 SW8       30.39R WCI  23
MADISON *+     SUNNY     32  23  69 S5        30.45S WCI  27
NORTH VERNON + SUNNY     30  21  69 CALM      30.43R
SEYMOUR +      SUNNY     32  23  69 S7        30.43R WCI  26

$$




USA.gov is the U.S. government's official web portal to all federal, state and local government web resources and services.